When you browse on this site, cookies collect data to enhance your experience and personalize the content and advertising you see.
Visit our Privacy Policy to learn more. By continuing to use the site, you agree to this use of cookies and data.
  • In Hungary
  • List of Countries
  • For 7 days
  • Water Temperature
  • Weather Map
  • News
  • Weather Widgets
  • user-avatar
    Login

    Hourly Weather Baarn

    Today, 21 August, Wednesday

    Time Temperature Precipitation Wind Pressure Humidity
    00:00 +13°C° 0 mm 1 mps 769 mmHg 81%
    01:00 +13°C° 0 mm 2 mps 769 mmHg 82%
    02:00 +13°C° 0 mm 2 mps 769 mmHg 83%
    03:00 +12°C° 0 mm 2 mps 769 mmHg 84%
    04:00 +13°C° 0 mm 2 mps 769 mmHg 83%
    05:00 +13°C° 0 mm 2 mps 769 mmHg 82%
    06:00 +14°C° 0 mm 2 mps 770 mmHg 81%
    07:00 +16°C° 0 mm 2 mps 770 mmHg 74%
    08:00 +18°C° 0 mm 2 mps 770 mmHg 66%
    09:00 +20°C° 0 mm 3 mps 770 mmHg 59%
    10:00 +20°C° 0 mm 3 mps 770 mmHg 55%
    11:00 +21°C° 0 mm 2 mps 770 mmHg 51%
    12:00 +23°C° 0 mm 2 mps 770 mmHg 47%
    13:00 +23°C° 0 mm 2 mps 770 mmHg 47%
    14:00 +23°C° 0 mm 2 mps 770 mmHg 48%
    15:00 +23°C° 0 mm 2 mps 769 mmHg 48%
    16:00 +22°C° 0 mm 1 mps 769 mmHg 53%
    17:00 +21°C° 0 mm 1 mps 769 mmHg 58%
    18:00 +20°C° 0 mm 1 mps 769 mmHg 64%
    19:00 +19°C° 0 mm 1 mps 769 mmHg 65%
    20:00 +18°C° 0 mm 1 mps 769 mmHg 66%
    21:00 +16°C° 0 mm 1 mps 769 mmHg 67%
    22:00 +15°C° 0 mm 1 mps 769 mmHg 67%
    23:00 +15°C° 0 mm 2 mps 768 mmHg 66%

    Tomorrow, 22 August, Thursday

    Time Temperature Precipitation Wind Pressure Humidity
    00:00 +15°C° 0 mm 2 mps 768 mmHg 66%
    01:00 +14°C° 0 mm 2 mps 768 mmHg 67%
    02:00 +14°C° 0 mm 2 mps 768 mmHg 67%
    03:00 +13°C° 0 mm 2 mps 767 mmHg 68%
    04:00 +14°C° 0 mm 2 mps 768 mmHg 69%
    05:00 +14°C° 0 mm 2 mps 768 mmHg 70%
    06:00 +14°C° 0 mm 2 mps 768 mmHg 70%
    07:00 +17°C° 0 mm 2 mps 768 mmHg 67%
    08:00 +19°C° 0 mm 2 mps 768 mmHg 63%
    09:00 +21°C° 0 mm 3 mps 768 mmHg 59%
    10:00 +22°C° 0 mm 3 mps 768 mmHg 56%
    11:00 +22°C° 0 mm 3 mps 768 mmHg 53%
    12:00 +23°C° 0 mm 4 mps 768 mmHg 49%
    13:00 +23°C° 0 mm 4 mps 768 mmHg 48%
    14:00 +24°C° 0 mm 3 mps 768 mmHg 47%
    15:00 +24°C° 0 mm 3 mps 768 mmHg 46%
    16:00 +22°C° 0 mm 3 mps 768 mmHg 50%
    17:00 +20°C° 0 mm 2 mps 768 mmHg 55%
    18:00 +20°C° 0 mm 1 mps 767 mmHg 59%
    19:00 +19°C° 0 mm 1 mps 768 mmHg 60%
    20:00 +16°C° 0 mm 1 mps 768 mmHg 61%
    21:00 +14°C° 0 mm 0 mps 768 mmHg 62%
    22:00 +14°C° 0 mm 0 mps 768 mmHg 62%
    23:00 +14°C° 0 mm 1 mps 768 mmHg 62%

    Day after tomorrow, 23 August, Friday

    Time Temperature Precipitation Wind Pressure Humidity
    00:00 +14°C° 0 mm 1 mps 768 mmHg 62%
    01:00 +14°C° 0 mm 1 mps 768 mmHg 63%
    02:00 +14°C° 0 mm 1 mps 768 mmHg 63%
    03:00 +13°C° 0 mm 1 mps 768 mmHg 64%
    04:00 +14°C° 0 mm 1 mps 768 mmHg 64%
    05:00 +15°C° 0 mm 1 mps 768 mmHg 65%
    06:00 +15°C° 0 mm 1 mps 768 mmHg 66%
    07:00 +18°C° 0 mm 1 mps 768 mmHg 61%
    08:00 +20°C° 0 mm 1 mps 768 mmHg 56%
    09:00 +22°C° 0 mm 1 mps 768 mmHg 51%
    10:00 +23°C° 0 mm 1 mps 768 mmHg 49%
    11:00 +25°C° 0 mm 1 mps 768 mmHg 46%
    12:00 +26°C° 0 mm 1 mps 767 mmHg 44%
    13:00 +26°C° 0 mm 1 mps 767 mmHg 44%
    14:00 +26°C° 0 mm 1 mps 767 mmHg 44%
    15:00 +26°C° 0 mm 1 mps 767 mmHg 43%
    16:00 +25°C° 0 mm 1 mps 767 mmHg 49%
    17:00 +23°C° 0 mm 2 mps 767 mmHg 55%
    18:00 +21°C° 0 mm 2 mps 766 mmHg 61%
    19:00 +19°C° 0 mm 2 mps 767 mmHg 61%
    20:00 +18°C° 0 mm 2 mps 767 mmHg 62%
    21:00 +17°C° 0 mm 2 mps 767 mmHg 62%
    22:00 +17°C° 0 mm 2 mps 767 mmHg 65%
    23:00 +16°C° 0 mm 2 mps 766 mmHg 69%

    24 August, Saturday

    Time Temperature Precipitation Wind Pressure Humidity
    00:00 +16°C° 0 mm 2 mps 766 mmHg 72%
    01:00 +16°C° 0 mm 2 mps 766 mmHg 74%
    02:00 +16°C° 0 mm 2 mps 766 mmHg 76%
    03:00 +14°C° 0 mm 3 mps 766 mmHg 78%
    04:00 +16°C° 0 mm 3 mps 765 mmHg 79%
    05:00 +16°C° 0 mm 3 mps 765 mmHg 80%
    06:00 +16°C° 0 mm 3 mps 765 mmHg 81%
    07:00 +18°C° 0 mm 3 mps 765 mmHg 74%
    08:00 +21°C° 0 mm 3 mps 765 mmHg 68%
    09:00 +24°C° 0 mm 3 mps 765 mmHg 62%
    10:00 +25°C° 0 mm 3 mps 765 mmHg 56%
    11:00 +27°C° 0 mm 3 mps 765 mmHg 51%
    12:00 +28°C° 0 mm 3 mps 764 mmHg 46%
    13:00 +28°C° 0 mm 3 mps 764 mmHg 45%
    14:00 +28°C° 0 mm 3 mps 764 mmHg 45%
    15:00 +29°C° 0 mm 3 mps 763 mmHg 44%
    16:00 +27°C° 0 mm 3 mps 763 mmHg 51%
    17:00 +26°C° 0 mm 3 mps 763 mmHg 58%
    18:00 +24°C° 0 mm 2 mps 763 mmHg 64%
    19:00 +22°C° 0 mm 3 mps 763 mmHg 67%
    20:00 +21°C° 0 mm 3 mps 763 mmHg 71%
    21:00 +20°C° 0 mm 3 mps 763 mmHg 74%
    22:00 +19°C° 0 mm 3 mps 763 mmHg 75%
    23:00 +19°C° 0 mm 3 mps 763 mmHg 77%

    25 August, Sunday

    Time Temperature Precipitation Wind Pressure Humidity
    00:00 +18°C° 0 mm 3 mps 763 mmHg 79%
    01:00 +18°C° 0 mm 3 mps 762 mmHg 80%
    02:00 +18°C° 0 mm 2 mps 762 mmHg 81%
    03:00 +17°C° 0 mm 2 mps 762 mmHg 82%
    04:00 +18°C° 0 mm 2 mps 762 mmHg 81%
    05:00 +18°C° 0 mm 2 mps 762 mmHg 80%
    06:00 +18°C° 0 mm 2 mps 762 mmHg 79%
    07:00 +20°C° 0 mm 2 mps 762 mmHg 72%
    08:00 +24°C° 0 mm 2 mps 762 mmHg 66%
    09:00 +26°C° 0 mm 2 mps 762 mmHg 59%
    10:00 +27°C° 0 mm 2 mps 762 mmHg 55%
    11:00 +28°C° 0 mm 2 mps 762 mmHg 51%
    12:00 +30°C° 0 mm 2 mps 761 mmHg 47%
    13:00 +30°C° 0 mm 2 mps 761 mmHg 46%
    14:00 +30°C° 0 mm 2 mps 761 mmHg 44%
    15:00 +30°C° 0 mm 2 mps 761 mmHg 43%
    16:00 +29°C° 0 mm 1 mps 761 mmHg 48%
    17:00 +27°C° 0 mm 1 mps 760 mmHg 53%
    18:00 +26°C° 0 mm 1 mps 760 mmHg 59%
    19:00 +25°C° 0 mm 1 mps 760 mmHg 60%
    20:00 +24°C° 0 mm 1 mps 760 mmHg 61%
    21:00 +23°C° 0 mm 2 mps 760 mmHg 62%
    22:00 +23°C° 0 mm 2 mps 760 mmHg 63%
    23:00 +21°C° 0 mm 2 mps 760 mmHg 65%

    26 August, Monday

    Time Temperature Precipitation Wind Pressure Humidity
    00:00 +21°C° 0 mm 2 mps 760 mmHg 66%
    01:00 +20°C° 0 mm 2 mps 759 mmHg 67%
    02:00 +20°C° 0 mm 2 mps 759 mmHg 68%
    03:00 +20°C° 0 mm 2 mps 759 mmHg 69%
    04:00 +20°C° 0 mm 2 mps 759 mmHg 69%
    05:00 +20°C° 0 mm 2 mps 759 mmHg 70%
    06:00 +20°C° 0 mm 3 mps 759 mmHg 70%
    07:00 +22°C° 0 mm 3 mps 759 mmHg 67%
    08:00 +24°C° 0 mm 3 mps 759 mmHg 63%
    09:00 +26°C° 0 mm 3 mps 759 mmHg 60%
    10:00 +25°C° 0 mm 4 mps 760 mmHg 60%
    11:00 +25°C° 0 mm 4 mps 760 mmHg 61%
    12:00 +25°C° 0 mm 4 mps 760 mmHg 62%
    13:00 +25°C° 0.1 mm 4 mps 760 mmHg 61%
    14:00 +23°C° 0.1 mm 4 mps 760 mmHg 60%
    15:00 +23°C° 0.1 mm 4 mps 761 mmHg 59%
    16:00 +22°C° 0 mm 4 mps 761 mmHg 61%
    17:00 +21°C° 0 mm 4 mps 761 mmHg 63%
    18:00 +19°C° 0 mm 4 mps 762 mmHg 65%
    19:00 +19°C° 0 mm 4 mps 762 mmHg 66%
    20:00 +18°C° 0 mm 3 mps 763 mmHg 68%
    21:00 +18°C° 0 mm 3 mps 763 mmHg 69%
    22:00 +17°C° 0 mm 3 mps 763 mmHg 73%
    23:00 +17°C° 0 mm 3 mps 764 mmHg 78%
    Show more